Torna al catalogo

STARLINK-36868

AttivoComunicazioniSSO
NORAD 68120·PAYLOAD·🇺🇸 United States

Lanciato Mar 8, 2026 da Vandenberg Space Force Base

Loading…

Prossimi Passaggi (prossime 24 ore)

TLE

AggiornatoSource: CelesTrak SupGP

Epoca: Sep 15, 2026, 03:25 UTC

1 68120C 26044V   26258.14284722  .00013764  00000+0  42736-3 0  2589
2 68120  97.2855 217.2106 0002217  94.4591 116.5657 15.33422950    14

Traccia STARLINK-36868 in tempo reale con AllMySat

Download on the App Store